User: anonymous   Login
Location: Unspecified
(0.0000°N, 0.0000°E)
Time: 06:48:53
(UTC+00:00)
Language:

DX 1 - Orbit

View from above orbital plane
View from above orbital plane
View from above satellite
View from above satellite

Ground track
Ground track

The orbit data is extracted from the following two-line orbital elements,

1 40071U 14037C   17087.79936706 +.00000871 +00000-0 +11983-3 0  9998
2 40071 098.3303 195.7147 0006929 316.4297 043.6368 14.80980737147078
Epoch (UTC): 28 March 2017 19:11:05
Eccentricity: 0.0006929
inclination: 98.3303°
perigee height: 621 km
apogee height: 631 km
right ascension of ascending node: 195.7147°
argument of perigee: 316.4297°
revolutions per day: 14.80980737
mean anomaly at epoch: 43.6368°
orbit number at epoch: 14707

The dashed part of the orbit path shows where the satellite is in the earth's shadow,  

DLR